Location: Arboyeti
(42.1122°N, 44.6017°E)
Time: 20:27:05
(UTC+00:00)

Cosmos 2263 Rocket - Pass Details

Date: 19 April 2021
Orbit: 824 x 848 km, 71.0° (Epoch: 18 May)

Event Time Altitude Azimuth Distance (km) Brightness Sun altitude
Exits shadow 19:44:06 28° 34° (NE) 1,505 3.7 -33.6°
Drops below altitude 10° 19:46:40 10° 29° (NNE) 2,432 5.0 -33.8°
Sets 19:49:07 0° 27° (NNE) 3,371 5.8 -34.0°
